User: anonymous   Login
Location: Unspecified
(0.0000°N, 0.0000°E)
Time: 15:49:30
(UTC+00:00)
Language:

NLS 7.2/CANX 5 - Orbit

View from above orbital plane
View from above orbital plane
View from above satellite
View from above satellite

Ground track
Ground track

The orbit data is extracted from the following two-line orbital elements,

1 40056U 14034D   21336.85478460  .00000257  00000-0  46176-4 0  9996
2 40056  98.3295 122.7477 0013009 263.3137  96.6591 14.75131656390547
Epoch (UTC): 02 December 2021 20:30:53
Eccentricity: 0.0013009
inclination: 98.3295°
perigee height: 635 km
apogee height: 654 km
right ascension of ascending node: 122.7477°
argument of perigee: 263.3137°
revolutions per day: 14.75131656
mean anomaly at epoch: 96.6591°
orbit number at epoch: 39054

The dashed part of the orbit path shows where the satellite is in the earth's shadow,  

DLR